| time (UTC) | temp F | wind direction | speed MPH | gust MPH | rain 1hr in | rain 24hr in | rain mn in | humidity % | barometer mb |
| 20260508025745 | 69 | 193 | 0.0 | 1.0 | 0.00 | 0.00 | 0.00 | 80 | 1014.7 |
| 20260508025242 | 69 | 167 | 1.0 | 2.0 | 0.00 | 0.00 | 0.00 | 80 | 1014.9 |
| 20260508024738 | 69 | 265 | 3.0 | 3.0 | 0.00 | 0.00 | 0.00 | 81 | 1015.0 |
| 20260508024235 | 69 | 338 | 2.0 | 3.0 | 0.00 | 0.00 | 0.00 | 82 | 1015.0 |
| 20260508023732 | 69 | 246 | 0.0 | 1.0 | 0.00 | 0.00 | 0.00 | 82 | 1015.1 |
| 20260508023229 | 69 | 302 | 1.0 | 2.0 | 0.00 | 0.00 | 0.00 | 83 | 1015.1 |
| 20260508022725 | 69 | 259 | 2.0 | 2.0 | 0.00 | 0.00 | 0.00 | 84 | 1014.9 |
| 20260508022222 | 69 | 255 | 1.0 | 1.0 | 0.00 | 0.00 | 0.00 | 83 | 1014.9 |
| 20260508021718 | 69 | 255 | 1.0 | 1.0 | 0.00 | 0.00 | 0.00 | 82 | 1014.8 |
| 20260508021214 | 69 | 254 | 0.0 | 1.0 | 0.00 | 0.00 | 0.00 | 82 | 1014.7 |
| 20260508020711 | 69 | 254 | 0.0 | 1.0 | 0.00 | 0.00 | 0.00 | 82 | 1014.6 |
| 20260508020208 | 69 | 255 | 0.0 | 0.0 | 0.00 | 0.00 | 0.00 | 82 | 1014.9 |
| 20260508015706 | 69 | 255 | 0.0 | 0.0 | 0.00 | 0.00 | 0.00 | 82 | 1015.3 |
| 20260508015203 | 69 | 254 | 0.0 | 0.0 | 0.00 | 0.00 | 0.00 | 82 | 1014.9 |
| 20260508014659 | 70 | 255 | 1.0 | 1.0 | 0.00 | 0.00 | 0.00 | 81 | 1014.8 |
| 20260508014155 | 70 | 238 | 0.0 | 1.0 | 0.00 | 0.00 | 0.00 | 81 | 1014.9 |
| 20260508013652 | 70 | 255 | 1.0 | 2.0 | 0.00 | 0.00 | 0.00 | 80 | 1015.0 |
| 20260508013148 | 70 | 237 | 0.0 | 0.0 | 0.00 | 0.00 | 0.00 | 80 | 1015.2 |
| 20260508012646 | 70 | 237 | 0.0 | 0.0 | 0.00 | 0.00 | 0.00 | 79 | 1014.9 |
| 20260508012143 | 71 | 245 | 0.0 | 3.0 | 0.00 | 0.00 | 0.00 | 79 | 1014.8 |
| 20260508011641 | 71 | 241 | 0.0 | 1.0 | 0.00 | 0.00 | 0.00 | 78 | 1014.8 |
| 20260508011138 | 71 | 241 | 0.0 | 0.0 | 0.00 | 0.00 | 0.00 | 77 | 1015.0 |
| 20260508010635 | 71 | 241 | 0.0 | 0.0 | 0.00 | 0.00 | 0.00 | 75 | 1014.7 |
| 20260508010133 | 72 | 240 | 1.0 | 1.0 | 0.00 | 0.00 | 0.00 | 74 | 1014.7 |
| 20260508005630 | 72 | 239 | 0.0 | 0.0 | 0.00 | 0.00 | 0.00 | 74 | 1014.6 |
| 20260508005126 | 72 | 242 | 0.0 | 1.0 | 0.00 | 0.00 | 0.00 | 73 | 1014.5 |
| 20260508004622 | 73 | 191 | 0.0 | 1.0 | 0.00 | 0.00 | 0.00 | 72 | 1014.7 |
| 20260508004119 | 73 | 217 | 1.0 | 2.0 | 0.00 | 0.00 | 0.00 | 72 | 1014.4 |
| 20260508003615 | 73 | 192 | 1.0 | 2.0 | 0.00 | 0.00 | 0.00 | 71 | 1014.5 |
| 20260508003113 | 73 | 193 | 0.0 | 3.0 | 0.00 | 0.00 | 0.00 | 71 | 1014.2 |
| 20260508002609 | 74 | 237 | 1.0 | 2.0 | 0.00 | 0.00 | 0.00 | 70 | 1014.4 |
| 20260508002107 | 74 | 254 | 1.0 | 2.0 | 0.00 | 0.00 | 0.00 | 69 | 1014.7 |
| 20260508001602 | 74 | 241 | 1.0 | 1.0 | 0.00 | 0.00 | 0.00 | 70 | 1014.6 |
| 20260508001058 | 74 | 269 | 1.0 | 3.0 | 0.00 | 0.00 | 0.00 | 69 | 1015.0 |
| 20260508000554 | 74 | 344 | 2.0 | 4.0 | 0.00 | 0.00 | 0.00 | 69 | 1015.1 |
| 20260508000052 | 74 | 18 | 1.0 | 2.0 | 0.00 | 0.00 | 0.00 | 69 | 1014.9 |
| 20260507235548 | 75 | 292 | 2.0 | 6.0 | 0.00 | 0.00 | 0.00 | 68 | 1014.8 |
| 20260507235046 | 75 | 291 | 1.0 | 4.0 | 0.00 | 0.00 | 0.00 | 70 | 1014.8 |
| 20260507234542 | 75 | 352 | 3.0 | 4.0 | 0.00 | 0.00 | 0.00 | 69 | 1014.9 |
| 20260507234039 | 75 | 301 | 2.0 | 3.0 | 0.00 | 0.00 | 0.00 | 70 | 1015.1 |
| 20260507233535 | 75 | 295 | 1.0 | 2.0 | 0.00 | 0.00 | 0.00 | 70 | 1015.0 |
| 20260507233034 | 75 | 297 | 2.0 | 3.0 | 0.00 | 0.00 | 0.00 | 68 | 1014.9 |
| 20260507232530 | 76 | 285 | 1.0 | 4.0 | 0.00 | 0.00 | 0.00 | 67 | 1015.0 |
| 20260507232028 | 76 | 313 | 3.0 | 6.0 | 0.00 | 0.00 | 0.00 | 66 | 1015.1 |
| 20260507231524 | 76 | 6 | 4.0 | 4.0 | 0.00 | 0.00 | 0.00 | 66 | 1014.6 |
| 20260507231021 | 76 | 221 | 2.0 | 4.0 | 0.00 | 0.00 | 0.00 | 66 | 1014.8 |
| 20260507230518 | 76 | 339 | 4.0 | 6.0 | 0.00 | 0.00 | 0.00 | 67 | 1014.6 |
| 20260507230014 | 76 | 280 | 4.0 | 7.0 | 0.00 | 0.00 | 0.00 | 67 | 1014.7 |
| 20260507225510 | 76 | 239 | 2.0 | 3.0 | 0.00 | 0.00 | 0.00 | 68 | 1014.8 |
| 20260507225007 | 76 | 355 | 4.0 | 6.0 | 0.00 | 0.00 | 0.00 | 69 | 1014.6 |
| 20260507224502 | 76 | 280 | 2.0 | 4.0 | 0.00 | 0.00 | 0.00 | 70 | 1014.3 |
| 20260507223959 | 76 | 347 | 5.0 | 7.0 | 0.00 | 0.00 | 0.00 | 69 | 1014.3 |
| 20260507223454 | 76 | 242 | 1.0 | 6.0 | 0.00 | 0.00 | 0.00 | 70 | 1014.2 |
| 20260507222952 | 76 | 303 | 3.0 | 6.0 | 0.00 | 0.00 | 0.00 | 69 | 1014.1 |
| 20260507222449 | 76 | 247 | 0.0 | 6.0 | 0.00 | 0.00 | 0.00 | 70 | 1014.2 |
| 20260507221945 | 77 | 252 | 2.0 | 6.0 | 0.00 | 0.00 | 0.00 | 69 | 1014.3 |
| 20260507221442 | 77 | 307 | 2.0 | 3.0 | 0.00 | 0.00 | 0.00 | 69 | 1014.2 |
| 20260507220938 | 76 | 279 | 1.0 | 6.0 | 0.00 | 0.00 | 0.00 | 69 | 1014.3 |
| 20260507220436 | 76 | 257 | 1.0 | 3.0 | 0.00 | 0.00 | 0.00 | 69 | 1014.5 |
| 20260507215932 | 76 | 347 | 3.0 | 4.0 | 0.00 | 0.00 | 0.00 | 68 | 1014.5 |
| 20260507215429 | 76 | 272 | 3.0 | 9.0 | 0.00 | 0.00 | 0.00 | 69 | 1014.5 |
| 20260507214926 | 76 | 265 | 1.0 | 3.0 | 0.00 | 0.00 | 0.00 | 69 | 1014.7 |
| 20260507214424 | 76 | 292 | 2.0 | 4.0 | 0.00 | 0.00 | 0.00 | 69 | 1014.7 |
| 20260507213919 | 77 | 354 | 6.0 | 7.0 | 0.00 | 0.00 | 0.00 | 68 | 1014.7 |
| 20260507213416 | 77 | 347 | 2.0 | 3.0 | 0.00 | 0.00 | 0.00 | 68 | 1014.8 |
| 20260507212913 | 76 | 328 | 4.0 | 7.0 | 0.00 | 0.00 | 0.00 | 69 | 1014.7 |
| 20260507212409 | 77 | 302 | 3.0 | 3.0 | 0.00 | 0.00 | 0.00 | 69 | 1014.6 |
| 20260507211906 | 76 | 284 | 0.0 | 3.0 | 0.00 | 0.00 | 0.00 | 70 | 1014.6 |
| 20260507211402 | 76 | 287 | 2.0 | 3.0 | 0.00 | 0.00 | 0.00 | 70 | 1014.8 |
| 20260507210859 | 76 | 254 | 2.0 | 6.0 | 0.00 | 0.00 | 0.00 | 71 | 1014.8 |
| 20260507210356 | 76 | 283 | 3.0 | 6.0 | 0.00 | 0.00 | 0.00 | 70 | 1014.8 |
| 20260507205853 | 76 | 11 | 6.0 | 7.0 | 0.00 | 0.00 | 0.00 | 70 | 1015.1 |
| 20260507205349 | 76 | 213 | 1.0 | 4.0 | 0.00 | 0.00 | 0.00 | 69 | 1015.1 |
| 20260507204846 | 76 | 325 | 4.0 | 7.0 | 0.00 | 0.00 | 0.00 | 69 | 1015.2 |
| 20260507204343 | 77 | 346 | 7.0 | 11.0 | 0.00 | 0.00 | 0.00 | 67 | 1015.0 |
| 20260507203841 | 77 | 265 | 2.0 | 4.0 | 0.00 | 0.00 | 0.00 | 69 | 1015.2 |
| 20260507203339 | 76 | 331 | 4.0 | 6.0 | 0.00 | 0.00 | 0.00 | 70 | 1015.4 |
| 20260507202834 | 75 | 42 | 4.0 | 8.0 | 0.00 | 0.00 | 0.00 | 70 | 1015.3 |
| 20260507202331 | 76 | 31 | 5.0 | 7.0 | 0.00 | 0.00 | 0.00 | 70 | 1015.1 |
| 20260507201826 | 75 | 335 | 1.0 | 4.0 | 0.00 | 0.00 | 0.00 | 71 | 1015.3 |
| 20260507201322 | 75 | 313 | 1.0 | 6.0 | 0.00 | 0.00 | 0.00 | 71 | 1015.3 |
| 20260507200819 | 76 | 177 | 4.0 | 7.0 | 0.00 | 0.00 | 0.00 | 70 | 1015.5 |
| 20260507200315 | 75 | 37 | 4.0 | 6.0 | 0.00 | 0.00 | 0.00 | 70 | 1015.7 |
| 20260507195811 | 76 | 47 | 4.0 | 9.0 | 0.00 | 0.00 | 0.00 | 69 | 1015.5 |
| 20260507195309 | 75 | 219 | 2.0 | 6.0 | 0.00 | 0.00 | 0.00 | 72 | 1015.7 |
| 20260507194806 | 75 | 272 | 2.0 | 6.0 | 0.00 | 0.00 | 0.00 | 72 | 1016.1 |
| 20260507194302 | 75 | 315 | 2.0 | 10.0 | 0.00 | 0.00 | 0.00 | 73 | 1015.9 |
| 20260507193758 | 75 | 357 | 3.0 | 4.0 | 0.00 | 0.00 | 0.00 | 71 | 1015.7 |
| 20260507193255 | 76 | 311 | 3.0 | 7.0 | 0.00 | 0.00 | 0.00 | 71 | 1015.6 |
| 20260507192751 | 75 | 159 | 2.0 | 4.0 | 0.00 | 0.00 | 0.00 | 72 | 1015.7 |
| 20260507192248 | 75 | 5 | 2.0 | 4.0 | 0.00 | 0.00 | 0.00 | 71 | 1015.8 |
| 20260507191744 | 74 | 261 | 3.0 | 4.0 | 0.00 | 0.00 | 0.00 | 71 | 1015.9 |
| 20260507191241 | 73 | 242 | 4.0 | 6.0 | 0.00 | 0.00 | 0.00 | 73 | 1016.2 |
| 20260507190738 | 74 | 314 | 3.0 | 7.0 | 0.00 | 0.00 | 0.00 | 73 | 1016.3 |
| 20260507190237 | 73 | 328 | 5.0 | 7.0 | 0.00 | 0.00 | 0.00 | 73 | 1016.5 |
| 20260507185735 | 73 | 314 | 4.0 | 7.0 | 0.00 | 0.00 | 0.00 | 72 | 1016.7 |
| 20260507185231 | 73 | 346 | 3.0 | 4.0 | 0.00 | 0.00 | 0.00 | 73 | 1016.9 |
| 20260507184729 | 72 | 304 | 2.0 | 3.0 | 0.00 | 0.00 | 0.00 | 76 | 1016.8 |
| 20260507184227 | 72 | 178 | 2.0 | 9.0 | 0.00 | 0.00 | 0.00 | 75 | 1016.5 |
| 20260507183723 | 72 | 6 | 3.0 | 6.0 | 0.00 | 0.00 | 0.00 | 75 | 1016.6 |
| 20260507183220 | 72 | 0 | 4.0 | 8.0 | 0.00 | 0.00 | 0.00 | 76 | 1016.8 |
| 20260507182717 | 72 | 337 | 5.0 | 9.0 | 0.00 | 0.00 | 0.00 | 75 | 1016.8 |
| 20260507182212 | 73 | 231 | 1.0 | 4.0 | 0.00 | 0.00 | 0.00 | 73 | 1016.8 |
| 20260507181709 | 71 | 12 | 1.0 | 7.0 | 0.00 | 0.00 | 0.00 | 75 | 1016.9 |
| 20260507181206 | 72 | 300 | 3.0 | 9.0 | 0.00 | 0.00 | 0.00 | 75 | 1016.8 |
| 20260507180702 | 71 | 343 | 4.0 | 7.0 | 0.00 | 0.00 | 0.00 | 76 | 1017.0 |
| 20260507180159 | 71 | 12 | 5.0 | 8.0 | 0.00 | 0.00 | 0.00 | 77 | 1017.1 |
| 20260507175655 | 70 | 317 | 4.0 | 9.0 | 0.00 | 0.00 | 0.00 | 78 | 1017.0 |
| 20260507175147 | 70 | 314 | 4.0 | 8.0 | 0.00 | 0.00 | 0.00 | 77 | 1017.1 |
| 20260507174644 | 72 | 329 | 3.0 | 3.0 | 0.00 | 0.00 | 0.00 | 76 | 1017.1 |
| 20260507174142 | 69 | 255 | 0.0 | 4.0 | 0.00 | 0.00 | 0.00 | 79 | 1017.4 |
| 20260507173639 | 69 | 279 | 2.0 | 7.0 | 0.00 | 0.00 | 0.00 | 79 | 1017.7 |
| 20260507173136 | 69 | 343 | 3.0 | 9.0 | 0.00 | 0.00 | 0.00 | 79 | 1017.8 |
| 20260507172632 | 69 | 250 | 2.0 | 3.0 | 0.00 | 0.00 | 0.00 | 79 | 1017.7 |
| 20260507172130 | 69 | 245 | 2.0 | 3.0 | 0.00 | 0.00 | 0.00 | 78 | 1017.9 |
| 20260507171629 | 69 | 252 | 1.0 | 6.0 | 0.00 | 0.00 | 0.00 | 78 | 1017.8 |
| 20260507171127 | 69 | 243 | 1.0 | 3.0 | 0.00 | 0.00 | 0.00 | 79 | 1017.8 |
| 20260507170624 | 69 | 241 | 2.0 | 4.0 | 0.00 | 0.00 | 0.00 | 79 | 1017.6 |
| 20260507170121 | 69 | 237 | 1.0 | 7.0 | 0.00 | 0.00 | 0.00 | 79 | 1017.5 |
| 20260507165616 | 69 | 285 | 1.0 | 3.0 | 0.00 | 0.00 | 0.00 | 78 | 1017.5 |
| 20260507165113 | 68 | 287 | 2.0 | 4.0 | 0.00 | 0.00 | 0.00 | 80 | 1017.7 |
| 20260507164609 | 67 | 356 | 3.0 | 3.0 | 0.00 | 0.00 | 0.00 | 80 | 1017.5 |
| 20260507164106 | 67 | 0 | 4.0 | 8.0 | 0.00 | 0.00 | 0.00 | 81 | 1017.6 |
| 20260507163604 | 67 | 332 | 3.0 | 9.0 | 0.00 | 0.00 | 0.00 | 81 | 1017.4 |
| 20260507163102 | 67 | 0 | 7.0 | 10.0 | 0.00 | 0.00 | 0.00 | 81 | 1017.2 |
| 20260507162601 | 67 | 248 | 2.0 | 6.0 | 0.00 | 0.00 | 0.00 | 81 | 1017.2 |
| 20260507162059 | 67 | 342 | 4.0 | 4.0 | 0.00 | 0.00 | 0.00 | 80 | 1017.1 |
| 20260507161555 | 68 | 129 | 3.0 | 7.0 | 0.00 | 0.00 | 0.00 | 80 | 1017.2 |
| 20260507161051 | 67 | 295 | 3.0 | 6.0 | 0.00 | 0.00 | 0.00 | 81 | 1017.0 |
| 20260507160548 | 66 | 217 | 3.0 | 6.0 | 0.00 | 0.00 | 0.00 | 81 | 1017.0 |
| 20260507160044 | 65 | 206 | 2.0 | 6.0 | 0.00 | 0.00 | 0.00 | 83 | 1016.8 |
| 20260507155539 | 65 | 221 | 2.0 | 7.0 | 0.00 | 0.00 | 0.00 | 83 | 1017.0 |
| 20260507155037 | 64 | 287 | 1.0 | 8.0 | 0.00 | 0.00 | 0.00 | 84 | 1016.8 |
| 20260507154534 | 64 | 331 | 6.0 | 11.0 | 0.00 | 0.00 | 0.00 | 84 | 1017.2 |
| 20260507154031 | 65 | 151 | 2.0 | 6.0 | 0.00 | 0.00 | 0.00 | 83 | 1017.3 |
| 20260507153528 | 64 | 5 | 4.0 | 11.0 | 0.00 | 0.00 | 0.00 | 85 | 1017.2 |
| 20260507153024 | 63 | 300 | 3.0 | 9.0 | 0.00 | 0.00 | 0.00 | 86 | 1017.4 |
| 20260507152520 | 64 | 350 | 5.0 | 8.0 | 0.00 | 0.00 | 0.00 | 85 | 1017.6 |
| 20260507152016 | 64 | 354 | 6.0 | 10.0 | 0.00 | 0.00 | 0.00 | 85 | 1017.4 |
| 20260507151513 | 63 | 8 | 6.0 | 10.0 | 0.00 | 0.00 | 0.00 | 86 | 1017.3 |
| 20260507151010 | 63 | 290 | 6.0 | 9.0 | 0.00 | 0.00 | 0.00 | 87 | 1017.2 |
| 20260507150506 | 63 | 337 | 3.0 | 8.0 | 0.00 | 0.00 | 0.00 | 87 | 1017.3 |
| 20260507150003 | 62 | 28 | 3.0 | 6.0 | 0.00 | 0.00 | 0.00 | 88 | 1017.0 |
| 20260507145458 | 62 | 350 | 4.0 | 7.0 | 0.00 | 0.00 | 0.00 | 88 | 1016.9 |
| 20260507144956 | 62 | 349 | 5.0 | 10.0 | 0.00 | 0.00 | 0.00 | 88 | 1017.0 |
| 20260507144452 | 62 | 283 | 2.0 | 6.0 | 0.00 | 0.00 | 0.00 | 89 | 1017.1 |
| 20260507143949 | 62 | 324 | 3.0 | 9.0 | 0.00 | 0.00 | 0.00 | 89 | 1017.1 |
| 20260507143447 | 62 | 336 | 2.0 | 9.0 | 0.00 | 0.00 | 0.00 | 90 | 1017.2 |
| 20260507142943 | 62 | 13 | 4.0 | 8.0 | 0.00 | 0.00 | 0.00 | 90 | 1017.1 |
| 20260507142439 | 62 | 358 | 6.0 | 8.0 | 0.00 | 0.00 | 0.00 | 91 | 1017.2 |
| 20260507141937 | 61 | 6 | 3.0 | 9.0 | 0.00 | 0.00 | 0.00 | 91 | 1017.0 |
| 20260507141432 | 61 | 270 | 2.0 | 3.0 | 0.00 | 0.00 | 0.00 | 92 | 1017.3 |
| 20260507140930 | 61 | 7 | 5.0 | 7.0 | 0.00 | 0.00 | 0.00 | 92 | 1017.3 |
| 20260507140426 | 61 | 334 | 6.0 | 8.0 | 0.00 | 0.00 | 0.00 | 92 | 1017.1 |
| 20260507135924 | 61 | 338 | 2.0 | 4.0 | 0.00 | 0.00 | 0.00 | 92 | 1017.4 |
| 20260507135420 | 61 | 21 | 3.0 | 8.0 | 0.00 | 0.00 | 0.00 | 91 | 1017.2 |
| 20260507134918 | 61 | 330 | 4.0 | 6.0 | 0.00 | 0.00 | 0.00 | 91 | 1017.3 |
| 20260507134414 | 62 | 3 | 2.0 | 3.0 | 0.00 | 0.00 | 0.00 | 91 | 1017.4 |
| 20260507133910 | 61 | 340 | 3.0 | 7.0 | 0.00 | 0.00 | 0.00 | 91 | 1017.3 |
| 20260507133406 | 61 | 320 | 2.0 | 8.0 | 0.00 | 0.00 | 0.00 | 91 | 1017.4 |
| 20260507132905 | 61 | 255 | 2.0 | 8.0 | 0.00 | 0.00 | 0.00 | 91 | 1017.3 |
| 20260507132400 | 61 | 277 | 3.0 | 9.0 | 0.00 | 0.00 | 0.00 | 91 | 1017.6 |
| 20260507131857 | 61 | 289 | 4.0 | 7.0 | 0.00 | 0.00 | 0.00 | 92 | 1017.4 |
| 20260507131355 | 61 | 262 | 2.0 | 6.0 | 0.00 | 0.00 | 0.00 | 91 | 1017.6 |
| 20260507130851 | 62 | 319 | 3.0 | 6.0 | 0.00 | 0.00 | 0.00 | 91 | 1017.7 |
| 20260507130348 | 62 | 22 | 4.0 | 7.0 | 0.00 | 0.00 | 0.00 | 91 | 1017.5 |
| 20260507125848 | 62 | 257 | 1.0 | 4.0 | 0.00 | 0.00 | 0.00 | 91 | 1017.5 |
| 20260507125344 | 62 | 358 | 3.0 | 9.0 | 0.00 | 0.00 | 0.00 | 92 | 1017.5 |
| 20260507124842 | 62 | 289 | 2.0 | 4.0 | 0.00 | 0.00 | 0.00 | 92 | 1017.7 |
| 20260507124338 | 62 | 234 | 1.0 | 6.0 | 0.00 | 0.00 | 0.00 | 92 | 1017.5 |
| 20260507123837 | 62 | 20 | 2.0 | 6.0 | 0.00 | 0.00 | 0.00 | 92 | 1017.2 |
| 20260507123333 | 62 | 278 | 3.0 | 4.0 | 0.00 | 0.00 | 0.00 | 92 | 1017.1 |
| 20260507122830 | 62 | 272 | 1.0 | 9.0 | 0.00 | 0.00 | 0.00 | 92 | 1016.8 |
| 20260507122325 | 62 | 244 | 1.0 | 4.0 | 0.00 | 0.00 | 0.00 | 92 | 1016.9 |
| 20260507121822 | 62 | 253 | 1.0 | 8.0 | 0.00 | 0.00 | 0.00 | 92 | 1016.5 |
| 20260507121317 | 62 | 334 | 3.0 | 4.0 | 0.00 | 0.00 | 0.00 | 92 | 1016.4 |
| 20260507120814 | 63 | 14 | 4.0 | 8.0 | 0.00 | 0.00 | 0.00 | 91 | 1016.1 |
| 20260507120310 | 63 | 7 | 3.0 | 4.0 | 0.00 | 0.00 | 0.00 | 91 | 1016.1 |
| 20260507115807 | 63 | 296 | 2.0 | 6.0 | 0.00 | 0.00 | 0.00 | 91 | 1016.0 |
| 20260507115306 | 63 | 1 | 2.0 | 4.0 | 0.00 | 0.00 | 0.00 | 91 | 1015.9 |
| 20260507114758 | 63 | 357 | 4.0 | 7.0 | 0.00 | 0.00 | 0.00 | 91 | 1015.9 |
| 20260507114256 | 63 | 288 | 2.0 | 4.0 | 0.00 | 0.00 | 0.00 | 91 | 1015.8 |
| 20260507113753 | 63 | 311 | 4.0 | 8.0 | 0.00 | 0.00 | 0.00 | 91 | 1015.8 |
| 20260507113249 | 63 | 12 | 6.0 | 9.0 | 0.00 | 0.00 | 0.00 | 91 | 1016.1 |
| 20260507112748 | 63 | 327 | 4.0 | 6.0 | 0.00 | 0.00 | 0.00 | 91 | 1016.1 |
| 20260507112244 | 63 | 313 | 4.0 | 9.0 | 0.00 | 0.00 | 0.00 | 91 | 1015.8 |
| 20260507111742 | 63 | 287 | 6.0 | 8.0 | 0.00 | 0.00 | 0.00 | 91 | 1015.7 |
| 20260507111238 | 63 | 347 | 3.0 | 4.0 | 0.00 | 0.00 | 0.00 | 91 | 1015.9 |
| 20260507110734 | 63 | 316 | 2.0 | 9.0 | 0.00 | 0.00 | 0.00 | 91 | 1015.3 |
| 20260507110231 | 64 | 310 | 3.0 | 4.0 | 0.00 | 0.00 | 0.00 | 91 | 1015.6 |
| 20260507105728 | 64 | 330 | 5.0 | 7.0 | 0.00 | 0.00 | 0.00 | 92 | 1015.4 |
| 20260507105224 | 64 | 245 | 1.0 | 4.0 | 0.00 | 0.00 | 0.00 | 92 | 1015.3 |
| 20260507104722 | 64 | 332 | 3.0 | 3.0 | 0.00 | 0.00 | 0.00 | 92 | 1015.0 |
| 20260507104218 | 64 | 235 | 0.0 | 2.0 | 0.00 | 0.00 | 0.00 | 92 | 1015.3 |
| 20260507103714 | 64 | 56 | 2.0 | 3.0 | 0.00 | 0.00 | 0.00 | 92 | 1015.1 |
| 20260507103210 | 64 | 263 | 0.0 | 2.0 | 0.00 | 0.00 | 0.00 | 92 | 1015.0 |
| 20260507102707 | 64 | 245 | 0.0 | 2.0 | 0.00 | 0.00 | 0.00 | 92 | 1015.2 |
| 20260507102204 | 64 | 279 | 3.0 | 4.0 | 0.00 | 0.00 | 0.00 | 92 | 1014.7 |
| 20260507101659 | 64 | 35 | 2.0 | 4.0 | 0.00 | 0.00 | 0.00 | 92 | 1014.9 |
| 20260507101155 | 64 | 24 | 3.0 | 6.0 | 0.00 | 0.00 | 0.00 | 92 | 1014.8 |
| 20260507100653 | 64 | 300 | 3.0 | 6.0 | 0.00 | 0.00 | 0.00 | 92 | 1014.5 |
| 20260507100151 | 64 | 278 | 2.0 | 2.0 | 0.00 | 0.00 | 0.00 | 92 | 1014.9 |
| 20260507095648 | 64 | 179 | 2.0 | 2.0 | 0.00 | 0.00 | 0.00 | 92 | 1014.7 |
| 20260507095145 | 64 | 350 | 3.0 | 4.0 | 0.00 | 0.00 | 0.00 | 92 | 1014.6 |
| 20260507094641 | 64 | 231 | 0.0 | 3.0 | 0.00 | 0.00 | 0.00 | 92 | 1014.8 |
| 20260507094138 | 64 | 11 | 2.0 | 8.0 | 0.00 | 0.00 | 0.00 | 92 | 1014.3 |
| 20260507093635 | 64 | 307 | 2.0 | 7.0 | 0.00 | 0.00 | 0.00 | 92 | 1014.3 |
| 20260507093134 | 64 | 234 | 3.0 | 4.0 | 0.00 | 0.00 | 0.00 | 92 | 1014.3 |
| 20260507092631 | 64 | 227 | 2.0 | 7.0 | 0.00 | 0.00 | 0.00 | 92 | 1014.2 |
| 20260507092127 | 64 | 11 | 4.0 | 6.0 | 0.00 | 0.00 | 0.00 | 92 | 1014.4 |
| 20260507091624 | 64 | 288 | 1.0 | 4.0 | 0.00 | 0.00 | 0.00 | 92 | 1014.3 |
| 20260507091120 | 64 | 322 | 3.0 | 6.0 | 0.00 | 0.00 | 0.00 | 92 | 1014.2 |
| 20260507090616 | 64 | 280 | 2.0 | 4.0 | 0.00 | 0.00 | 0.00 | 92 | 1014.2 |
| 20260507090113 | 64 | 346 | 4.0 | 7.0 | 0.00 | 0.00 | 0.00 | 92 | 1014.3 |
| 20260507085610 | 64 | 307 | 2.0 | 3.0 | 0.00 | 0.00 | 0.00 | 92 | 1014.2 |
| 20260507085106 | 64 | 333 | 5.0 | 7.0 | 0.00 | 0.00 | 0.00 | 92 | 1014.2 |
| 20260507084603 | 64 | 10 | 3.0 | 3.0 | 0.00 | 0.00 | 0.00 | 92 | 1014.3 |
| 20260507084100 | 64 | 243 | 1.0 | 2.0 | 0.00 | 0.00 | 0.00 | 92 | 1014.2 |
| 20260507083556 | 64 | 275 | 4.0 | 6.0 | 0.00 | 0.00 | 0.00 | 92 | 1014.2 |
| 20260507083054 | 64 | 256 | 2.0 | 4.0 | 0.00 | 0.00 | 0.00 | 92 | 1014.2 |
| 20260507082549 | 64 | 359 | 4.0 | 6.0 | 0.00 | 0.00 | 0.00 | 92 | 1014.3 |
| 20260507082046 | 64 | 255 | 1.0 | 3.0 | 0.00 | 0.00 | 0.00 | 92 | 1014.4 |
| 20260507081542 | 64 | 321 | 2.0 | 4.0 | 0.00 | 0.00 | 0.00 | 92 | 1014.0 |
| 20260507081040 | 64 | 332 | 2.0 | 6.0 | 0.00 | 0.00 | 0.00 | 92 | 1014.1 |
| 20260507080535 | 64 | 259 | 2.0 | 4.0 | 0.00 | 0.00 | 0.00 | 91 | 1014.5 |
| 20260507080032 | 64 | 6 | 3.0 | 8.0 | 0.00 | 0.00 | 0.00 | 91 | 1014.5 |
| 20260507075527 | 64 | 334 | 4.0 | 6.0 | 0.00 | 0.00 | 0.00 | 91 | 1014.1 |
| 20260507075024 | 64 | 321 | 2.0 | 7.0 | 0.00 | 0.00 | 0.00 | 91 | 1014.3 |
| 20260507074520 | 64 | 348 | 4.0 | 6.0 | 0.00 | 0.00 | 0.00 | 91 | 1014.4 |
| 20260507074020 | 64 | 293 | 2.0 | 3.0 | 0.00 | 0.00 | 0.00 | 91 | 1014.6 |
| 20260507073515 | 64 | 321 | 3.0 | 4.0 | 0.00 | 0.00 | 0.00 | 91 | 1014.6 |
| 20260507073012 | 64 | 257 | 1.0 | 2.0 | 0.00 | 0.00 | 0.00 | 91 | 1015.0 |
| 20260507072509 | 64 | 350 | 4.0 | 6.0 | 0.00 | 0.00 | 0.00 | 90 | 1014.6 |
| 20260507072006 | 65 | 258 | 1.0 | 3.0 | 0.00 | 0.00 | 0.00 | 90 | 1014.5 |
| 20260507071504 | 65 | 11 | 4.0 | 6.0 | 0.00 | 0.00 | 0.00 | 90 | 1014.6 |
| 20260507071000 | 65 | 204 | 2.0 | 4.0 | 0.00 | 0.00 | 0.00 | 90 | 1014.2 |
| 20260507070457 | 65 | 351 | 2.0 | 6.0 | 0.00 | 0.00 | 0.00 | 90 | 1014.8 |
| 20260507065954 | 65 | 247 | 2.0 | 3.0 | 0.00 | 0.00 | 0.00 | 89 | 1014.8 |
| 20260507065451 | 65 | 252 | 1.0 | 7.0 | 0.00 | 0.00 | 0.00 | 89 | 1015.0 |
| 20260507064948 | 65 | 266 | 2.0 | 3.0 | 0.00 | 0.00 | 0.00 | 89 | 1015.1 |
| 20260507064446 | 65 | 7 | 5.0 | 6.0 | 0.00 | 0.00 | 0.00 | 89 | 1015.0 |
| 20260507063943 | 65 | 249 | 3.0 | 4.0 | 0.00 | 0.00 | 0.00 | 89 | 1014.9 |
| 20260507063440 | 65 | 356 | 2.0 | 6.0 | 0.00 | 0.00 | 0.00 | 89 | 1014.9 |
| 20260507062937 | 65 | 287 | 4.0 | 6.0 | 0.00 | 0.00 | 0.00 | 88 | 1015.1 |
| 20260507062434 | 65 | 246 | 2.0 | 3.0 | 0.00 | 0.00 | 0.00 | 88 | 1014.6 |
| 20260507061932 | 65 | 295 | 2.0 | 9.0 | 0.00 | 0.00 | 0.00 | 88 | 1014.5 |
| 20260507061429 | 65 | 334 | 3.0 | 6.0 | 0.00 | 0.00 | 0.00 | 88 | 1015.0 |
| 20260507060928 | 65 | 242 | 1.0 | 3.0 | 0.00 | 0.00 | 0.00 | 88 | 1014.8 |
| 20260507060424 | 65 | 311 | 2.0 | 4.0 | 0.00 | 0.00 | 0.00 | 88 | 1014.5 |
| 20260507055921 | 65 | 298 | 4.0 | 13.0 | 0.00 | 0.00 | 0.00 | 88 | 1014.3 |
| 20260507055416 | 65 | 300 | 3.0 | 8.0 | 0.00 | 0.00 | 0.00 | 88 | 1014.5 |
| 20260507054914 | 65 | 103 | 3.0 | 6.0 | 0.00 | 0.00 | 0.00 | 88 | 1014.6 |
| 20260507054409 | 66 | 341 | 1.0 | 3.0 | 0.00 | 0.00 | 0.00 | 88 | 1014.6 |
| 20260507053907 | 66 | 355 | 6.0 | 8.0 | 0.00 | 0.00 | 0.00 | 88 | 1014.7 |
| 20260507053404 | 66 | 339 | 1.0 | 3.0 | 0.00 | 0.00 | 0.00 | 87 | 1014.8 |
| 20260507052903 | 66 | 316 | 2.0 | 4.0 | 0.00 | 0.00 | 0.00 | 87 | 1014.8 |
| 20260507052400 | 66 | 289 | 3.0 | 8.0 | 0.00 | 0.00 | 0.00 | 87 | 1014.5 |
| 20260507051857 | 66 | 354 | 4.0 | 6.0 | 0.00 | 0.00 | 0.00 | 87 | 1014.5 |
| 20260507051355 | 66 | 282 | 2.0 | 8.0 | 0.00 | 0.00 | 0.00 | 87 | 1014.4 |
| 20260507050851 | 66 | 288 | 3.0 | 8.0 | 0.00 | 0.00 | 0.00 | 87 | 1014.6 |
| 20260507050348 | 66 | 7 | 2.0 | 10.0 | 0.00 | 0.00 | 0.00 | 87 | 1014.6 |
| 20260507045845 | 66 | 272 | 2.0 | 3.0 | 0.00 | 0.07 | 0.07 | 87 | 1014.6 |
| 20260507045341 | 66 | 219 | 3.0 | 6.0 | 0.00 | 0.07 | 0.07 | 87 | 1014.4 |
| 20260507044838 | 66 | 340 | 2.0 | 4.0 | 0.00 | 0.07 | 0.07 | 87 | 1014.6 |
| 20260507044335 | 67 | 5 | 1.0 | 7.0 | 0.00 | 0.07 | 0.07 | 87 | 1014.4 |
| 20260507043830 | 67 | 333 | 2.0 | 4.0 | 0.00 | 0.07 | 0.07 | 87 | 1014.3 |
| 20260507043327 | 67 | 344 | 4.0 | 8.0 | 0.00 | 0.07 | 0.07 | 87 | 1014.2 |
| 20260507042824 | 67 | 292 | 1.0 | 3.0 | 0.00 | 0.07 | 0.07 | 87 | 1014.2 |
| 20260507042320 | 67 | 8 | 5.0 | 6.0 | 0.00 | 0.07 | 0.07 | 87 | 1014.1 |
| 20260507041817 | 68 | 294 | 1.0 | 3.0 | 0.00 | 0.07 | 0.07 | 87 | 1014.1 |
| 20260507041313 | 68 | 320 | 3.0 | 7.0 | 0.00 | 0.07 | 0.07 | 86 | 1014.2 |
| 20260507040810 | 68 | 288 | 2.0 | 4.0 | 0.00 | 0.07 | 0.07 | 87 | 1014.2 |
| 20260507040306 | 68 | 22 | 3.0 | 6.0 | 0.00 | 0.07 | 0.07 | 87 | 1014.3 |
| 20260507035802 | 68 | 258 | 1.0 | 7.0 | 0.00 | 0.07 | 0.07 | 86 | 1014.0 |
| 20260507035258 | 68 | 30 | 4.0 | 6.0 | 0.00 | 0.07 | 0.07 | 86 | 1014.1 |
| 20260507034756 | 68 | 311 | 1.0 | 2.0 | 0.00 | 0.07 | 0.07 | 86 | 1014.3 |
| 20260507034252 | 68 | 292 | 2.0 | 3.0 | 0.00 | 0.07 | 0.07 | 86 | 1014.4 |
| 20260507033751 | 68 | 251 | 1.0 | 2.0 | 0.00 | 0.07 | 0.07 | 86 | 1014.5 |
| 20260507033248 | 69 | 308 | 1.0 | 3.0 | 0.00 | 0.07 | 0.07 | 86 | 1014.2 |
| 20260507032745 | 69 | 279 | 1.0 | 1.0 | 0.00 | 0.07 | 0.07 | 86 | 1014.0 |
| 20260507032241 | 69 | 283 | 1.0 | 2.0 | 0.00 | 0.07 | 0.07 | 86 | 1013.8 |
| 20260507031738 | 69 | 272 | 1.0 | 4.0 | 0.00 | 0.07 | 0.07 | 86 | 1014.1 |
| 20260507031235 | 69 | 243 | 1.0 | 7.0 | 0.00 | 0.07 | 0.07 | 86 | 1013.8 |
| 20260507030731 | 69 | 277 | 3.0 | 3.0 | 0.00 | 0.07 | 0.07 | 86 | 1013.7 |
| 20260507030229 | 69 | 322 | 2.0 | 2.0 | 0.00 | 0.07 | 0.07 | 86 | 1013.3 |